Presure
122 119 126 125 127 129 125 121 123 124 126 124 130 134 134 132 134 127 136 132 127 137 141 136 102 150 135 158 230 183 198 162 149 140 194 141 143 180 180 187 195 192 204 208 227
126 124 123 120 117 117 120 119 122 120 122 125 126 123 132 138 135 137 132 126 125 129 136 136 130 141 134 146 153 144 225 215 148 138 173 201 138 188 191 198 219 235 205 281 173
122 122 123 123 122 122 120 120 121 120 119 124 126 127 121 124 126 134 130 132 133 125 135 128 140 128 124 128 145 149 196 228 239 154 155 208 136 126 199 218 211 192 214 179 174
121 124 124 121 134 123 120 120 124 121 119 119 123 124 124 127 126 120 122 131 131 127 131 132 140 134 141 134 125 144 149 203 194 167 158 182 182 150 147 189 190 185 193 188 175
123 125 119 123 123 121 123 131 123 120 118 121 120 120 117 126 125 124 126 130 130 131 133 131 133 133 135 131 139 136 140 145 224 169 166 160 189 189 187 189 206 189 181 182 181
131 128 123 125 126 132 134 131 130 132 133 135 129 126 120 122 123 119 123 123 126 129 130 136 134 130 133 141 138 123 131 138 147 228 191 167 137 175 182 184 212 207 187 185 180
127 127 128 127 128 123 130 125 130 133 131 125 126 127 134 132 124 133 122 125 122 125 129 134 132 126 134 132 125 136 136 134 137 148 209 196 169 134 171 168 175 133 182 177 179
125 119 119 124 121 123 132 131 120 123 123 126 120 127 129 126 125 130 123 123 121 126 124 127 133 130 132 137 133 132 134 137 135 139 148 205 178 159 187 161 193 187 179 180 179
134 136 137 138 136 136 134 135 132 124 125 129 127 124 120 125 128 118 125 130 127 123 119 127 126 132 132 131 132 135 137 131 135 135 135 144 195 214 169 165 141 191 168 159 181
132 126 125 121 125 123 123 124 126 140 129 138 137 126 130 129 133 138 128 138 131 139 133 125 122 127 132 132 135 134 134 131 139 137 136 139 140 202 213 165 149 182 160 157 153
128 127 129 127 128 132 134 134 134 145 143 147 143 140 135 127 119 134 136 134 135 133 131 142 124 123 125 130 131 136 137 134 130 130 139 135 142 138 205 206 174 205 150 189 175
107 104 118 114 136 135 114 134 130 134 135 130 138 126 116 126 139 146 135 127 133 129 130 134 142 130 126 129 133 130 134 137 134 132 134 135 134 133 138 133 196 190 155 207 154
128 122 122 120 125 106 123 124 127 121 127 96 116 136 130 119 135 129 138 134 132 131 133 132 133 135 140 130 131 133 131 133 140 136 131 136 135 136 131 132 136 173 202 206 218
127 125 124 123 120 120 122 121 121 113 116 125 129 129 126 134 151 131 118 108 111 112 146 137 140 133 132 139 139 138 134 128 133 141 137 132 137 124 140 137 134 133 140 160 201
137 140 141 141 143 142 141 141 141 140 139 140 142 142 144 138 115 112 121 127 134 134 126 133 137 139 135 138 137 133 145 138 129 134 138 138 131 137 137 136 136 128 134 141 138
187 159 156 153 150 136 136 150 137 138 121 137 107 136 91 117 131 141 116 116 132 127 133 135 128 127 142 134 135 139 133 144 145 130 130 138 136 137 134 142 130 140 141 124 131
184 178 205 207 222 218 213 211 210 211 212 209 211 214 215 215 219 224 271 256 194 121 116 125 135 131 133 131 135 140 141 141 141 142 127 126 133 136 142 131 136 130 135 146 147
213 211 208 205 205 204 201 201 201 202 202 200 201 201 200 201 202 201 205 102 257 247 220 126 122 127 135 139 133 133 142 139 140 139 144 121 128 129 135 140 147 139 139 115 142
198 199 195 193 192 190 190 189 190 189 191 189 121 197 197 195 154 191 195 195 198 213 249 235 219 126 122 128 137 131 131 135 139 140 134 143 131 127 130 132 139 148 133 144 133
187 186 179 183 182 182 186 185 181 183 182 183 186 209 203 193 190 191 187 188 190 189 192 240 173 228 139 122 124 136 134 133 134 138 140 140 143 132 130 135 132 139 144 140 131
214 217 224 192 215 213 198 198 204 200 190 195 232 192 194 207 197 199 205 206 187 188 188 220 241 236 234 223 193 123 125 136 135 133 138 139 141 147 139 131 134 130 132 141 147
193 190 200 197 196 196 193 213 195 207 218 212 217 226 232 237 263 213 187 198 206 185 189 187 186 243 240 226 165 211 131 124 128 136 143 134 137 142 148 139 131 131 128 134 135
187 188 185 184 184 186 199 202 196 202 205 205 205 197 208 209 222 225 250 249 259 209 200 186 186 227 244 243 236 228 127 123 125 131 136 140 158 136 153 143 133 131 134 135 132
185 185 185 181 182 201 196 205 198 189 197 196 190 191 198 202 201 208 204 212 261 248 245 248 255 189 188 220 201 236 228 135 140 132 138 146 152 142 137 143 138 130 130 133 133
180 188 201 208 209 199 206 201 200 206 204 210 218 205 211 194 196 196 203 213 224 215 255 247 237 252 161 192 243 240 233 228 161 135 143 137 140 179 154 143 140 143 125 132 131
207 199 199 216 212 200 196 197 186 187 203 205 198 192 197 203 206 206 255 206 211 208 253 254 254 243 253 281 168 246 245 235 226 149 137 148 145 137 144 134 138 156 147 128 127
208 200 192 194 195 195 199 197 189 190 196 205 212 204 198 220 222 222 261 255 238 210 216 212 249 259 237 246 256 297 249 245 233 224 221 189 147 151 152 148 141 143 140 136 150
Wind_Speed
14 15 14 15 16 17 18 21 21 21 22 21 23 20 19 18 18 13 21 17 19 21 27 25 20 29 23 31 22 21 19 17 17 20 14 20 22 14 15 17 13 13 5 3 6
9 10 10 11 14 16 16 16 17 18 18 19 20 19 19 19 18 19 17 14 19 17 23 22 21 25 21 30 31 24 23 24 17 19 19 10 25 13 15 8 8 10 12 5 11
6 7 7 7 9 10 13 13 12 13 14 16 17 17 17 18 19 20 20 19 20 16 19 17 21 16 12 18 30 31 33 26 17 23 24 11 26 35 12 11 15 12 17 15 12
4 3 5 7 6 7 11 12 9 11 11 13 14 15 16 16 16 16 16 17 16 15 17 17 18 17 23 23 21 29 33 31 24 25 26 22 19 31 31 10 6 12 19 22 19
5 6 7 8 8 7 9 10 11 9 10 11 14 13 12 16 14 14 15 17 16 16 14 14 15 14 20 18 23 23 28 30 20 24 25 28 18 16 15 12 11 14 17 20 21
12 10 10 10 13 15 11 9 11 14 14 9 7 8 12 14 13 11 12 12 15 16 14 15 13 12 16 19 22 16 22 26 28 25 24 24 28 21 19 15 15 18 20 22 22
15 15 15 16 16 10 15 6 9 11 14 13 8 8 10 10 10 14 11 13 11 13 17 17 15 10 17 14 13 22 20 20 23 28 25 24 23 28 22 21 16 28 17 20 20
16 12 13 16 13 13 17 17 4 8 9 15 12 15 16 13 15 19 10 12 11 15 13 16 17 15 15 18 17 17 18 19 20 24 28 21 21 21 17 23 12 14 15 18 18
24 26 28 28 27 26 24 24 20 10 11 17 17 16 15 13 17 10 14 19 15 11 8 16 14 16 17 15 17 17 17 15 18 19 20 25 17 14 18 19 25 11 17 17 15
25 22 23 21 21 18 17 15 17 27 12 17 20 23 27 24 21 21 22 22 22 21 18 15 9 15 16 15 16 15 13 11 14 14 17 19 20 16 12 18 21 12 17 18 19
23 25 26 25 27 29 30 29 28 33 32 29 20 22 30 23 9 21 24 25 24 23 17 20 15 11 12 13 12 15 13 10 8 7 12 13 17 19 14 11 14 8 19 8 9
12 13 20 16 34 34 16 32 27 31 27 24 22 15 20 29 31 27 20 24 27 23 17 24 22 20 15 15 13 10 12 13 8 6 7 10 12 14 18 16 13 13 16 4 14
28 26 27 25 29 16 24 23 25 17 24 4 10 19 24 24 34 21 24 25 29 21 25 23 22 24 23 19 15 13 10 10 12 7 4 7 9 9 9 12 15 13 12 9 3
31 30 31 30 29 30 29 27 23 15 18 24 24 19 20 28 45 14 6 2 2 6 27 28 28 25 23 27 26 22 14 7 12 10 6 2 5 3 7 8 10 11 13 14 9
44 48 50 51 52 51 50 50 49 46 45 47 46 43 44 37 13 15 24 26 26 26 28 25 29 30 26 31 26 21 27 16 11 11 10 7 3 3 4 4 5 6 8 9 11
58 53 53 53 53 52 53 54 51 48 31 45 19 41 8 20 34 39 16 17 28 26 34 29 30 26 31 30 28 29 21 26 23 10 10 12 9 6 3 5 3 6 6 5 7
58 57 43 41 32 32 35 37 39 38 36 40 38 37 38 39 41 44 51 54 43 27 22 24 35 34 31 28 32 34 30 30 25 20 13 12 12 9 9 4 2 5 2 3 6
32 32 33 34 35 36 39 39 40 39 41 43 43 42 43 43 43 43 42 15 55 57 54 29 29 31 37 35 33 35 35 32 30 23 23 18 14 11 11 10 9 6 7 3 3
34 34 35 38 39 40 41 43 44 44 44 46 19 48 46 48 39 49 43 44 45 48 59 60 61 32 26 31 39 36 33 30 32 32 24 26 21 16 15 14 12 12 10 8 8
37 39 43 43 44 45 44 45 47 47 48 48 50 49 50 49 50 52 50 49 47 50 50 60 42 67 44 30 30 42 41 37 34 36 35 31 29 22 21 20 15 15 14 11 10
32 33 33 41 38 39 42 42 42 44 48 48 37 50 51 48 47 47 50 51 55 53 54 54 65 68 67 66 57 31 31 45 44 37 37 36 33 34 27 21 19 17 17 15 15
36 37 36 38 39 41 41 41 42 43 39 42 42 42 42 40 27 42 51 51 54 59 57 57 54 70 70 66 46 63 44 35 40 46 47 36 33 34 35 27 24 22 21 19 18
37 37 39 41 43 45 45 43 46 46 46 46 46 46 45 46 42 39 33 39 36 55 57 62 60 66 74 72 72 68 42 40 42 44 48 45 55 36 41 35 28 26 26 24 21
39 41 42 44 46 43 47 45 47 50 48 51 52 51 52 52 51 51 48 47 40 43 47 49 46 66 65 71 60 73 72 55 60 53 54 56 57 36 38 40 35 30 29 28 24
42 41 38 37 40 46 43 45 46 46 50 52 48 58 57 56 57 56 54 55 54 53 46 51 52 52 58 65 79 77 74 73 64 60 62 58 45 71 48 48 42 44 31 31 26
30 33 36 32 36 42 48 51 57 58 57 55 60 61 62 62 62 60 50 59 60 54 50 52 53 54 54 50 23 83 79 76 72 68 64 74 61 34 38 43 41 54 45 29 29
26 30 36 38 39 44 48 50 58 63 61 56 55 61 67 63 63 63 55 58 64 64 65 60 57 58 58 60 62 55 82 81 78 76 77 67 67 66 60 53 47 45 40 39 48
Wind_Direction
89 82 68 63 64 60 54 58 48 44 44 53 53 54 53 62 60 63 64 72 83 70 56 56 49 40 46 33 43 30 27 36 33 25 10 5 24 340 328 332 318 307 278 234 182
89 83 71 72 87 89 75 66 53 51 43 38 39 54 47 50 48 47 52 51 55 63 58 56 56 44 49 40 33 33 28 18 37 40 21 25 31 1 355 326 52 71 105 80 146
58 58 56 49 45 43 67 69 62 50 49 29 26 23 47 45 43 36 33 35 44 44 37 64 42 53 42 48 36 30 28 17 12 35 29 32 27 40 24 88 92 98 97 123 131
10 360 2 24 339 13 21 38 32 41 34 35 24 18 16 21 28 39 32 24 37 36 36 29 29 45 44 49 40 36 29 25 24 32 27 24 26 27 34 30 73 93 107 117 120
319 317 5 336 335 349 341 323 349 13 29 12 8 15 16 355 12 20 14 5 15 25 29 28 20 43 49 48 47 35 38 26 29 27 30 30 30 37 50 47 95 116 116 118 123
272 280 314 308 306 303 295 303 313 312 313 319 332 336 347 344 345 16 2 3 4 7 6 19 19 27 38 33 49 44 33 33 27 28 29 30 40 32 44 53 92 104 113 118 121
289 287 283 287 288 292 292 300 292 293 298 322 325 317 311 305 316 309 339 332 353 356 355 356 9 26 18 36 46 38 37 38 32 30 31 22 29 43 40 49 60 58 95 104 112
283 295 296 283 288 292 277 281 318 295 297 301 312 306 303 306 307 303 317 319 332 335 348 353 348 1 4 13 26 38 31 38 31 36 32 32 30 39 48 50 52 79 83 101 104
272 275 277 279 279 281 281 281 282 290 289 276 286 298 305 300 297 303 306 303 301 318 337 327 344 342 345 5 9 16 20 22 31 37 36 38 45 32 43 48 54 55 66 75 114
275 273 276 288 290 291 293 293 290 285 271 261 265 289 285 289 284 277 290 285 290 288 292 312 324 330 332 347 351 353 10 13 33 38 45 38 46 51 41 47 46 53 55 65 63
272 276 278 279 280 282 283 281 281 285 284 285 272 270 276 277 272 274 272 283 278 287 289 283 301 309 319 332 339 332 339 358 9 29 51 48 35 52 55 53 58 58 61 45 58
303 329 288 303 274 277 277 281 287 284 283 283 273 240 276 273 273 267 252 272 268 274 282 285 274 285 296 301 313 315 322 331 346 5 30 53 46 43 51 46 69 68 54 34 59
273 275 277 287 283 272 286 287 286 288 288 330 281 266 255 284 276 268 255 249 263 270 270 278 277 275 276 284 285 291 292 314 317 328 347 28 49 44 56 52 41 49 62 48 27
279 279 279 281 284 287 287 283 281 279 274 278 281 268 264 265 272 247 199 174 201 271 258 262 263 273 277 272 276 278 280 274 294 306 314 341 19 48 40 73 65 45 28 52 33
278 277 277 278 278 278 277 276 275 276 276 277 278 278 276 269 258 267 268 271 260 264 277 270 266 260 271 267 272 275 274 274 267 288 296 306 280 351 357 40 63 71 50 31 46
277 276 277 278 279 281 280 278 280 280 277 276 264 277 156 266 273 270 278 268 265 264 263 260 268 271 250 269 274 267 267 275 272 252 273 287 289 301 300 5 356 36 27 66 35
276 275 278 280 284 281 278 275 273 273 271 270 269 271 271 268 268 266 250 251 256 258 263 262 254 263 261 264 265 265 266 268 265 266 233 248 278 282 295 263 258 291 318 48 32
280 282 281 280 278 276 275 275 274 273 272 270 266 262 263 265 266 266 266 240 250 253 255 254 257 261 263 254 256 266 258 259 263 260 261 229 237 251 275 282 269 244 259 176 159
280 280 279 277 275 274 274 274 274 274 274 272 273 269 263 261 262 260 260 260 262 263 248 250 256 252 253 255 251 257 264 261 257 259 246 255 234 228 248 254 270 270 240 269 253
277 276 276 276 274 275 274 273 273 274 273 272 272 275 271 266 264 264 261 256 255 257 259 248 249 252 247 252 252 252 256 261 256 254 255 252 252 233 235 247 243 267 267 264 257
287 291 296 278 293 292 283 282 286 283 277 278 280 272 274 271 265 267 267 261 258 254 254 250 246 248 249 252 251 256 251 254 260 256 255 254 253 250 241 236 244 246 255 268 264
290 288 295 295 292 289 287 295 284 291 290 290 289 287 282 283 291 267 261 262 260 258 255 254 253 247 247 247 251 250 251 254 255 258 255 253 250 250 247 237 235 239 239 255 260
287 289 288 288 288 288 294 294 290 292 292 290 287 282 287 285 282 276 273 269 273 256 254 256 255 246 246 246 245 246 248 251 256 256 257 254 242 247 244 240 230 237 244 245 246
292 292 290 288 287 294 291 291 290 284 286 285 282 282 286 283 280 281 272 272 271 265 258 252 246 254 254 247 243 243 244 244 244 254 252 247 251 240 248 249 240 232 240 245 244
289 292 295 298 295 292 292 289 291 292 290 289 289 285 283 277 278 277 276 279 273 267 264 257 251 245 254 248 242 241 240 241 240 248 246 253 254 248 223 241 244 245 238 247 251
301 300 300 304 300 295 290 289 288 288 292 289 288 287 287 288 286 281 268 276 275 270 254 259 257 250 243 238 235 239 240 237 237 238 244 245 251 245 245 247 247 240 249 237 246
302 294 297 298 300 296 292 288 290 292 294 289 288 293 290 292 286 283 272 265 262 273 271 263 249 257 243 243 239 238 237 239 236 237 236 240 246 246 251 245 247 249 248 246 249